| time (UTC) | temp F | wind direction | speed MPH | gust MPH | rain 1hr in | rain 24hr in | rain mn in | humidity % | barometer mb |
| 20260503180752 | 63 | 288 | 0.0 | 0.0 | 0.00 | 0.00 | 0.00 | 46 | 992.1 |
| 20260503180253 | 64 | 288 | 0.0 | 0.0 | 0.00 | 0.00 | 0.00 | 45 | 992.0 |
| 20260503174751 | 64 | 288 | 1.0 | 1.0 | 0.00 | 0.00 | 0.00 | 45 | 992.1 |
| 20260503174252 | 65 | 288 | 1.0 | 2.0 | 0.00 | 0.00 | 0.00 | 44 | 992.1 |
| 20260503173251 | 65 | 288 | 2.0 | 2.0 | 0.00 | 0.00 | 0.00 | 44 | 992.1 |
| 20260503172751 | 65 | 286 | 2.0 | 2.0 | 0.00 | 0.00 | 0.00 | 44 | 992.0 |
| 20260503172251 | 66 | 297 | 3.0 | 3.0 | 0.00 | 0.00 | 0.00 | 44 | 992.0 |
| 20260503171751 | 66 | 297 | 3.0 | 3.0 | 0.00 | 0.00 | 0.00 | 44 | 992.2 |
| 20260503170750 | 67 | 297 | 3.0 | 5.0 | 0.00 | 0.00 | 0.00 | 42 | 992.0 |
| 20260503150744 | 69 | 288 | 6.0 | 11.0 | 0.00 | 0.00 | 0.00 | 39 | 992.4 |
| 20260503150243 | 69 | 286 | 6.0 | 9.0 | 0.00 | 0.00 | 0.00 | 40 | 992.5 |
| 20260503140240 | 68 | 300 | 6.0 | 11.0 | 0.00 | 0.00 | 0.00 | 41 | 992.9 |
| 20260503131237 | 68 | 310 | 5.0 | 9.0 | 0.00 | 0.00 | 0.00 | 40 | 993.7 |
| 20260503130737 | 68 | 305 | 4.0 | 9.0 | 0.00 | 0.00 | 0.00 | 39 | 993.8 |
| 20260503130236 | 68 | 203 | 4.0 | 10.0 | 0.00 | 0.00 | 0.00 | 40 | 993.9 |
| 20260503110731 | 63 | 328 | 5.0 | 9.0 | 0.00 | 0.00 | 0.00 | 43 | 995.1 |
| 20260503110231 | 63 | 343 | 6.0 | 10.0 | 0.00 | 0.00 | 0.00 | 43 | 995.2 |
| 20260503080218 | 58 | 271 | 3.0 | 6.0 | 0.00 | 0.00 | 0.00 | 50 | 997.0 |
| 20260503072720 | 56 | 149 | 2.0 | 5.0 | 0.00 | 0.00 | 0.00 | 52 | 997.2 |
| 20260503072217 | 55 | 288 | 2.0 | 7.0 | 0.00 | 0.00 | 0.00 | 51 | 997.2 |
| 20260503071716 | 55 | 235 | 2.0 | 6.0 | 0.00 | 0.00 | 0.00 | 53 | 997.2 |
| 20260503071217 | 55 | 212 | 2.0 | 4.0 | 0.00 | 0.00 | 0.00 | 55 | 997.2 |
| 20260503070716 | 55 | 228 | 2.0 | 3.0 | 0.00 | 0.00 | 0.00 | 55 | 997.2 |
| 20260503070215 | 54 | 179 | 2.0 | 5.0 | 0.00 | 0.00 | 0.00 | 56 | 997.2 |
| 20260503054710 | 49 | 89 | 4.0 | 8.0 | 0.00 | 0.00 | 0.00 | 66 | 997.1 |
| 20260503053711 | 48 | 86 | 5.0 | 7.0 | 0.00 | 0.00 | 0.00 | 69 | 997.1 |
| 20260503053211 | 47 | 93 | 6.0 | 8.0 | 0.00 | 0.00 | 0.00 | 68 | 997.1 |
| 20260503052711 | 47 | 70 | 7.0 | 10.0 | 0.00 | 0.00 | 0.00 | 69 | 997.0 |
| 20260503051709 | 46 | 91 | 7.0 | 9.0 | 0.00 | 0.00 | 0.00 | 70 | 996.9 |
| 20260503051209 | 46 | 102 | 7.0 | 9.0 | 0.00 | 0.00 | 0.00 | 70 | 996.8 |
| 20260503045207 | 45 | 86 | 6.0 | 10.0 | 0.00 | 0.00 | 0.00 | 72 | 996.9 |
| 20260503044707 | 45 | 92 | 6.0 | 8.0 | 0.00 | 0.00 | 0.00 | 72 | 996.9 |
| 20260503044208 | 44 | 94 | 7.0 | 10.0 | 0.00 | 0.00 | 0.00 | 72 | 996.9 |
| 20260503043706 | 44 | 86 | 7.0 | 10.0 | 0.00 | 0.00 | 0.00 | 73 | 997.0 |
| 20260503043208 | 44 | 105 | 7.0 | 10.0 | 0.00 | 0.00 | 0.00 | 73 | 996.8 |
| 20260503042207 | 43 | 87 | 6.0 | 9.0 | 0.00 | 0.00 | 0.00 | 73 | 996.8 |
| 20260503040706 | 43 | 98 | 7.0 | 9.0 | 0.00 | 0.00 | 0.00 | 74 | 996.7 |
| 20260503040204 | 43 | 86 | 7.0 | 9.0 | 0.00 | 0.00 | 0.00 | 74 | 996.6 |
| 20260503035704 | 43 | 96 | 7.0 | 11.0 | 0.00 | 0.00 | 0.00 | 74 | 996.6 |
| 20260503034704 | 42 | 105 | 6.0 | 9.0 | 0.00 | 0.00 | 0.00 | 74 | 996.5 |
| 20260503034203 | 42 | 94 | 5.0 | 7.0 | 0.00 | 0.00 | 0.00 | 74 | 996.5 |
| 20260503033706 | 42 | 93 | 4.0 | 7.0 | 0.00 | 0.00 | 0.00 | 75 | 996.5 |
| 20260503032703 | 41 | 97 | 3.0 | 4.0 | 0.00 | 0.00 | 0.00 | 75 | 996.4 |
| 20260503031705 | 42 | 108 | 5.0 | 6.0 | 0.00 | 0.00 | 0.00 | 75 | 996.3 |
| 20260503031202 | 42 | 97 | 6.0 | 7.0 | 0.00 | 0.00 | 0.00 | 74 | 996.2 |
| 20260503030703 | 42 | 95 | 6.0 | 8.0 | 0.00 | 0.00 | 0.00 | 73 | 996.2 |
| 20260503030206 | 43 | 87 | 6.0 | 8.0 | 0.00 | 0.00 | 0.00 | 72 | 996.0 |
| 20260503025701 | 43 | 86 | 5.0 | 7.0 | 0.00 | 0.00 | 0.00 | 70 | 995.9 |
| 20260503025201 | 44 | 89 | 3.0 | 5.0 | 0.00 | 0.00 | 0.00 | 70 | 995.8 |
| 20260503024700 | 44 | 96 | 3.0 | 6.0 | 0.00 | 0.00 | 0.00 | 68 | 995.7 |
| 20260503024201 | 44 | 101 | 2.0 | 5.0 | 0.00 | 0.00 | 0.00 | 68 | 995.6 |
| 20260503023700 | 43 | 113 | 3.0 | 4.0 | 0.00 | 0.00 | 0.00 | 70 | 995.7 |
| 20260503022702 | 44 | 84 | 6.0 | 7.0 | 0.00 | 0.00 | 0.00 | 70 | 995.6 |
| 20260503022202 | 43 | 70 | 6.0 | 8.0 | 0.00 | 0.00 | 0.00 | 71 | 995.6 |
| 20260503021658 | 44 | 83 | 5.0 | 8.0 | 0.00 | 0.00 | 0.00 | 70 | 995.8 |
| 20260503020659 | 44 | 115 | 2.0 | 6.0 | 0.00 | 0.00 | 0.00 | 69 | 995.7 |
| 20260503020159 | 44 | 141 | 1.0 | 2.0 | 0.00 | 0.00 | 0.00 | 68 | 995.6 |
| 20260503015657 | 45 | 101 | 3.0 | 2.0 | 0.00 | 0.00 | 0.00 | 68 | 995.6 |
| 20260503014658 | 45 | 88 | 3.0 | 6.0 | 0.00 | 0.00 | 0.00 | 67 | 995.7 |
| 20260503014158 | 44 | 97 | 3.0 | 3.0 | 0.00 | 0.00 | 0.00 | 68 | 995.8 |
| 20260503013156 | 44 | 105 | 4.0 | 5.0 | 0.00 | 0.00 | 0.00 | 68 | 995.9 |
| 20260503012656 | 44 | 112 | 4.0 | 5.0 | 0.00 | 0.00 | 0.00 | 69 | 995.9 |
| 20260503012158 | 43 | 100 | 4.0 | 6.0 | 0.00 | 0.00 | 0.00 | 70 | 995.9 |
| 20260503011658 | 43 | 98 | 4.0 | 6.0 | 0.00 | 0.00 | 0.00 | 70 | 995.9 |
| 20260503010655 | 44 | 91 | 4.0 | 6.0 | 0.00 | 0.00 | 0.00 | 68 | 995.9 |
| 20260503010154 | 44 | 103 | 5.0 | 6.0 | 0.00 | 0.00 | 0.00 | 68 | 995.9 |
| 20260503005657 | 44 | 113 | 5.0 | 6.0 | 0.00 | 0.00 | 0.00 | 68 | 995.9 |
| 20260503005154 | 45 | 91 | 5.0 | 6.0 | 0.00 | 0.00 | 0.00 | 67 | 995.9 |
| 20260503004655 | 46 | 89 | 5.0 | 6.0 | 0.00 | 0.00 | 0.00 | 65 | 995.9 |
| 20260503004154 | 46 | 117 | 4.0 | 6.0 | 0.00 | 0.00 | 0.00 | 65 | 995.9 |
| 20260503003153 | 45 | 115 | 2.0 | 3.0 | 0.00 | 0.00 | 0.00 | 66 | 995.9 |
| 20260503002652 | 45 | 89 | 2.0 | 3.0 | 0.00 | 0.00 | 0.00 | 65 | 995.9 |
| 20260503001652 | 45 | 158 | 0.0 | 0.0 | 0.00 | 0.00 | 0.00 | 66 | 995.9 |
| 20260503001151 | 45 | 8 | 0.0 | 0.0 | 0.00 | 0.00 | 0.00 | 65 | 995.9 |
| 20260503000151 | 46 | 92 | 1.0 | 0.0 | 0.00 | 0.00 | 0.00 | 64 | 995.8 |
| 20260502235651 | 47 | 92 | 2.0 | 2.0 | 0.00 | 0.00 | 0.00 | 63 | 995.8 |
| 20260502235152 | 47 | 92 | 1.0 | 3.0 | 0.00 | 0.00 | 0.00 | 63 | 995.7 |
| 20260502233651 | 48 | 93 | 4.0 | 5.0 | 0.00 | 0.00 | 0.00 | 61 | 995.9 |
| 20260502233149 | 48 | 96 | 4.0 | 6.0 | 0.00 | 0.00 | 0.00 | 60 | 995.9 |
| 20260502232149 | 49 | 116 | 3.0 | 3.0 | 0.00 | 0.00 | 0.00 | 59 | 995.8 |
| 20260502231648 | 50 | 117 | 4.0 | 6.0 | 0.00 | 0.00 | 0.00 | 57 | 995.8 |
| 20260502230649 | 50 | 113 | 5.0 | 7.0 | 0.00 | 0.00 | 0.00 | 56 | 995.8 |
| 20260502230148 | 50 | 92 | 4.0 | 7.0 | 0.00 | 0.00 | 0.00 | 56 | 995.7 |
| 20260502225647 | 50 | 89 | 4.0 | 5.0 | 0.00 | 0.00 | 0.00 | 56 | 995.6 |
| 20260502225147 | 50 | 96 | 4.0 | 6.0 | 0.00 | 0.00 | 0.00 | 56 | 995.7 |
| 20260502224647 | 51 | 100 | 4.0 | 6.0 | 0.00 | 0.00 | 0.00 | 55 | 995.7 |
| 20260502224147 | 51 | 100 | 4.0 | 5.0 | 0.00 | 0.00 | 0.00 | 55 | 995.9 |
| 20260502223647 | 51 | 81 | 4.0 | 6.0 | 0.00 | 0.00 | 0.00 | 55 | 995.9 |
| 20260502223146 | 51 | 86 | 4.0 | 6.0 | 0.00 | 0.00 | 0.00 | 54 | 995.9 |
| 20260502222646 | 51 | 82 | 5.0 | 6.0 | 0.00 | 0.00 | 0.00 | 54 | 995.9 |
| 20260502221646 | 53 | 80 | 7.0 | 9.0 | 0.00 | 0.00 | 0.00 | 52 | 995.9 |
| 20260502221148 | 53 | 79 | 7.0 | 10.0 | 0.00 | 0.00 | 0.00 | 51 | 995.9 |
| 20260502215645 | 53 | 75 | 8.0 | 11.0 | 0.00 | 0.00 | 0.00 | 51 | 995.8 |
| 20260502215144 | 53 | 80 | 9.0 | 11.0 | 0.00 | 0.00 | 0.00 | 51 | 995.8 |
| 20260502214645 | 54 | 94 | 9.0 | 12.0 | 0.00 | 0.00 | 0.00 | 49 | 995.9 |
| 20260502214144 | 54 | 92 | 8.0 | 11.0 | 0.00 | 0.00 | 0.00 | 50 | 995.8 |
| 20260502213643 | 53 | 96 | 8.0 | 11.0 | 0.00 | 0.00 | 0.00 | 51 | 995.7 |
| 20260502213146 | 53 | 85 | 7.0 | 11.0 | 0.00 | 0.00 | 0.00 | 51 | 995.8 |
| 20260502212143 | 53 | 84 | 8.0 | 10.0 | 0.00 | 0.00 | 0.00 | 51 | 995.7 |
| 20260502211643 | 53 | 80 | 8.0 | 12.0 | 0.00 | 0.00 | 0.00 | 52 | 995.7 |
| 20260502211142 | 52 | 85 | 8.0 | 12.0 | 0.00 | 0.00 | 0.00 | 53 | 995.8 |
| 20260502210642 | 52 | 82 | 7.0 | 11.0 | 0.00 | 0.00 | 0.00 | 53 | 995.7 |
| 20260502210143 | 52 | 75 | 6.0 | 8.0 | 0.00 | 0.00 | 0.00 | 53 | 995.8 |
| 20260502205641 | 52 | 83 | 6.0 | 11.0 | 0.00 | 0.00 | 0.00 | 53 | 995.8 |
| 20260502205141 | 53 | 56 | 6.0 | 7.0 | 0.00 | 0.00 | 0.00 | 52 | 995.8 |
| 20260502204642 | 53 | 76 | 6.0 | 7.0 | 0.00 | 0.00 | 0.00 | 52 | 995.8 |
| 20260502204140 | 53 | 77 | 6.0 | 8.0 | 0.00 | 0.00 | 0.00 | 52 | 995.8 |
| 20260502203642 | 53 | 62 | 6.0 | 8.0 | 0.00 | 0.00 | 0.00 | 51 | 995.8 |
| 20260502203141 | 53 | 72 | 7.0 | 9.0 | 0.00 | 0.00 | 0.00 | 51 | 995.7 |
| 20260502202639 | 53 | 82 | 6.0 | 10.0 | 0.00 | 0.00 | 0.00 | 51 | 995.7 |
| 20260502202140 | 53 | 93 | 6.0 | 8.0 | 0.00 | 0.00 | 0.00 | 52 | 995.9 |
| 20260502201639 | 53 | 86 | 6.0 | 7.0 | 0.00 | 0.00 | 0.00 | 52 | 995.8 |
| 20260502201139 | 53 | 98 | 6.0 | 10.0 | 0.00 | 0.00 | 0.00 | 51 | 995.8 |
| 20260502200139 | 54 | 80 | 6.0 | 9.0 | 0.00 | 0.00 | 0.00 | 51 | 995.7 |
| 20260502195638 | 54 | 84 | 6.0 | 8.0 | 0.00 | 0.00 | 0.00 | 51 | 995.8 |
| 20260502195137 | 54 | 85 | 6.0 | 8.0 | 0.00 | 0.00 | 0.00 | 51 | 995.7 |
| 20260502194640 | 54 | 91 | 7.0 | 11.0 | 0.00 | 0.00 | 0.00 | 50 | 995.8 |
| 20260502194136 | 54 | 81 | 8.0 | 10.0 | 0.00 | 0.00 | 0.00 | 50 | 995.7 |
| 20260502193636 | 54 | 81 | 8.0 | 12.0 | 0.00 | 0.00 | 0.00 | 49 | 995.8 |
| 20260502193137 | 55 | 91 | 8.0 | 16.0 | 0.00 | 0.00 | 0.00 | 50 | 995.8 |
| 20260502192635 | 54 | 79 | 7.0 | 13.0 | 0.00 | 0.00 | 0.00 | 51 | 995.7 |
| 20260502192138 | 54 | 88 | 7.0 | 12.0 | 0.00 | 0.00 | 0.00 | 51 | 995.8 |
| 20260502191635 | 54 | 98 | 7.0 | 10.0 | 0.00 | 0.00 | 0.00 | 50 | 995.8 |
| 20260502191136 | 55 | 79 | 7.0 | 9.0 | 0.00 | 0.00 | 0.00 | 50 | 995.8 |
| 20260502190635 | 55 | 90 | 6.0 | 10.0 | 0.00 | 0.00 | 0.00 | 50 | 995.8 |
| 20260502190135 | 55 | 95 | 6.0 | 8.0 | 0.00 | 0.00 | 0.00 | 50 | 995.7 |
| 20260502185634 | 55 | 84 | 6.0 | 7.0 | 0.00 | 0.00 | 0.00 | 50 | 995.7 |
| 20260502185133 | 55 | 82 | 5.0 | 8.0 | 0.00 | 0.00 | 0.00 | 50 | 995.5 |
| 20260502183633 | 56 | 86 | 5.0 | 7.0 | 0.00 | 0.00 | 0.00 | 49 | 995.2 |
| 20260502183132 | 56 | 93 | 6.0 | 8.0 | 0.00 | 0.00 | 0.00 | 49 | 995.2 |
| 20260502182632 | 56 | 79 | 6.0 | 8.0 | 0.00 | 0.00 | 0.00 | 49 | 995.2 |
| 20260502182133 | 57 | 95 | 6.0 | 9.0 | 0.00 | 0.00 | 0.00 | 48 | 995.2 |